Regional Weather Roundup
Issued by NWS Little Rock, AR

Current Version | Previous Version | Text Only | Print | Product List | Glossary On
Versions: 1 2 3 4 5 6 7 8 9 10 11 12 13 14 15 16 17 18 19 20 21 22 23 24 25 26 27 28 29 30 31 32 33 34 35 36 37 38 39 40 41 42 43 44 45 46 47 48 49 50
000
ASUS44 KLZK 270305
RWRLZK

WEATHER ROUNDUP FOR ARKANSAS
NATIONAL WEATHER SERVICE LITTLE ROCK AR
1000 PM CDT TUE MAY 26 2015

NOTE: "FAIR" INDICATES FEW OR NO CLOUDS BELOW 12,000 FEET WITH NO
SIGNIFICANT WEATHER AND/OR OBSTRUCTIONS TO VISIBILITY.

ARZ001-003-010-029-270400-
NORTHWEST ARKANSAS

CITY           SKY/WX    TMP DP  RH WIND       PRES   REMARKS
FAYETTEVILLE   MOCLDY    65  64  97 SE3       30.02R
FORT SMITH     CLOUDY    76  67  73 SE3       29.99R
HARRISON       CLEAR     68  62  81 SE9       30.03R
BENTONVILLE    PTCLDY    66  61  82 S3        30.02R
ROGERS         PTCLDY    68  62  81 SE5       30.03R
SILOAM SPGS    MOCLDY    66  59  77 SE5       30.02R
HIGHFILL       MOCLDY    67  63  87 CALM      30.01
$$

ARZ004-005-016-270400-
NORTH CENTRAL ARKANSAS

CITY           SKY/WX    TMP DP  RH WIND       PRES   REMARKS
BATESVILLE     CLEAR     72  63  73 SE6       30.05S
FLIPPIN        FAIR      70  63  78 CALM      30.01R
MTN HOME       CLEAR     68  63  84 S6        30.02R
$$

ARZ040-041-270400-
WEST CENTRAL ARKANSAS

CITY           SKY/WX    TMP DP  RH WIND       PRES   REMARKS
MENA           CLOUDY    73  70  88 CALM      30.05R
MOUNT IDA      CLOUDY    73  68  84 SE7       30.03S
$$

ARZ009-017-025-026-028-270400-
NORTHEAST ARKANSAS

CITY           SKY/WX    TMP DP  RH WIND       PRES   REMARKS
CORNING        FAIR      70  66  88 S8        30.06R
JONESBORO      CLEAR     68  64  87 SW6       30.06R
NEWPORT        CLEAR     70  66  86 S7        30.07R
WALNUT RIDGE   CLEAR     70  64  83 S10       30.06R
BLYTHEVILLE    CLEAR     69  66  90 SW5       30.08R
$$

ARZ022-023-033-042-044-270400-
CENTRAL ARKANSAS

CITY           SKY/WX    TMP DP  RH WIND       PRES   REMARKS
LITTLE ROCK    MOCLDY    72  65  78 CALM      30.06S
N LITTLE ROCK  MOCLDY    71  69  91 S3        30.06S
JACKSONVILLE   CLEAR     72  67  84 S2        30.05S
SEARCY         CLEAR     69  66  90 S3        30.08R
HOT SPRINGS    CLOUDY    73  68  84 E5        30.06R
RUSSELLVILLE   MOCLDY    73  67  81 VRB3      30.02R
CLINTON        FAIR      66  66 100 CALM      30.06S
$$

ARZ036-270400-
EAST ARKANSAS

CITY           SKY/WX    TMP DP  RH WIND       PRES   REMARKS
WEST MEMPHIS   CLEAR     70  68  93 CALM      30.07R
$$

ARZ050-053-066-070-073-270400-
SOUTHWEST ARKANSAS

CITY           SKY/WX    TMP DP  RH WIND       PRES   REMARKS
ARKADELPHIA    FAIR      73  73 100 CALM      30.06R
CAMDEN         MOCLDY    72  68  88 CALM      30.05F FOG
TEXARKANA      CLOUDY    74  70  87 SE6       30.05R
EL DORADO      TSTM      74  70  87 CALM      30.05S FOG
DE QUEEN       CLOUDY    73  70  90 MISG      30.01R
$$

ARZ056-057-069-270400-
SOUTHEAST ARKANSAS

CITY           SKY/WX    TMP DP  RH WIND       PRES   REMARKS
PINE BLUFF     PTCLDY    71  68  90 S6        30.07R
STUTTGART      CLEAR     72  64  78 S6        30.07R
MONTICELLO     PTCLDY    75  71  87 CALM      30.08R

$$




USA.gov is the U.S. government's official web portal to all federal, state and local government web resources and services.